Weather History for Thedford, NE

Change the Weather History Date:

Friday, November 18, 2011

  Actual Average (KLBF) Record (KLBF)
Temperature  
Mean Temperature 40 °F 34 °F  
Max Temperature 53 °F 49 °F 78 °F (1908)
Min Temperature 28 °F 20 °F -5 °F (1886)
Degree Days  
Heating Degree Days 24 31  
Month to date heating degree days 477  
Since 1 July heating degree days 1146  
Cooling Degree Days 0 0  
Month to date cooling degree days 0  
Year to date cooling degree days 768  
Moisture  
Dew Point 22 °F    
Average Humidity 51    
Maximum Humidity 74    
Minimum Humidity 28    
Precipitation  
Precipitation 0.00 in 0.02 in 0.59 in (2004)
Month to date precipitation 0.44  
Year to date precipitation 19.62  
Snow  
Snow 0.00 in 0.10 in 2.30 in (1961)
Month to date snowfall 2.2  
Since 1 July snowfall 4.5  
Since 1 September snowfall 4.5  
Snow Depth -    
Sea Level Pressure  
Sea Level Pressure 29.62 in    
Wind  
Wind Speed 4 mph (NNE)    
Max Wind Speed 13 mph    
Max Gust Speed 16 mph    
Visibility 10 miles    
Events      
T = Trace of Precipitation, MM = Missing Value Source: NWS Daily Summary

Daily Weather History Graph

Daily Weather History Graph

Search for Another Location

Airport:

Trip Planner

Search our weather history database for the weather conditions in past years. The results will help you decide how hot, cold, wet, or windy it might be!

Date:

Astronomy

Nov. 18, 2011 Rise Set
Actual Time 7:35 AM CST 5:18 PM CST
Civil Twilight 7:05 AM CST 5:49 PM CST
Nautical Twilight 6:31 AM CST 6:23 PM CST
Astronomical Twilight 5:58 AM CST 6:56 PM CST
Moon No Moon Rise 1:12 PM CST (11/18)
Length of Visible Light 10h 43m
Length of Day
9h 43m
Waning Gibbous, 49% of the Moon is Illuminated
Nov 18
Waning Gibbous
Nov 25
New
Dec 2
First Quarter
Dec 10
Full
Dec 17
Last Quarter

Hourly Weather History & Observations

Time (CST) Temp. Windchill Dew Point Humidity Pressure Visibility Wind Dir Wind Speed Gust Speed Precip Events Conditions
12:15 AM 32.0 °F 26.4 °F 21.2 °F 64% 29.67 in 10.0 mi WSW 5.8 mph - N/A   Clear
12:35 AM 35.6 °F - 21.2 °F 56% 29.67 in 10.0 mi Calm Calm - N/A   Clear
12:55 AM 35.6 °F 31.7 °F 21.2 °F 56% 29.67 in 10.0 mi WSW 4.6 mph - N/A   Clear
1:15 AM 35.6 °F 32.8 °F 21.2 °F 56% 29.66 in 10.0 mi SW 3.5 mph - N/A   Clear
1:35 AM 35.6 °F - 21.2 °F 56% 29.66 in 10.0 mi Calm Calm - N/A   Clear
1:55 AM 33.8 °F - 21.2 °F 60% 29.65 in 10.0 mi Calm Calm - N/A   Clear
2:35 AM 32.0 °F - 21.2 °F 64% 29.63 in 10.0 mi Calm Calm - N/A   Clear
2:55 AM 32.0 °F - 21.2 °F 64% 29.64 in 10.0 mi Calm Calm - N/A   Clear
3:15 AM 30.2 °F - 21.2 °F 69% 29.64 in 10.0 mi Calm Calm - N/A   Clear
3:35 AM 28.4 °F - 21.2 °F 74% 29.64 in 10.0 mi Calm Calm - N/A   Clear
3:55 AM 30.2 °F - 21.2 °F 69% 29.63 in 10.0 mi Calm Calm - N/A   Clear
4:15 AM 32.0 °F - 21.2 °F 64% 29.62 in 10.0 mi Calm Calm - N/A   Clear
4:35 AM 30.2 °F - 21.2 °F 69% 29.61 in 10.0 mi Calm Calm - N/A   Clear
4:55 AM 32.0 °F - 21.2 °F 64% 29.60 in 10.0 mi Calm Calm - N/A   Clear
5:35 AM 35.6 °F 31.7 °F 23.0 °F 60% 29.62 in 10.0 mi NNW 4.6 mph 9.2 mph N/A   Mostly Cloudy
5:55 AM 33.8 °F - 23.0 °F 65% 29.60 in 10.0 mi Calm Calm - N/A   Overcast
6:15 AM 32.0 °F - 23.0 °F 69% 29.61 in 10.0 mi Calm Calm - N/A   Overcast
6:35 AM 33.8 °F - 23.0 °F 65% 29.61 in 10.0 mi Calm Calm - N/A   Mostly Cloudy
6:55 AM 33.8 °F - 23.0 °F 65% 29.60 in 10.0 mi Calm Calm - N/A   Scattered Clouds
7:15 AM 33.8 °F 29.6 °F 23.0 °F 65% 29.60 in 10.0 mi SW 4.6 mph - N/A   Mostly Cloudy
7:35 AM 35.6 °F 30.7 °F 23.0 °F 60% 29.59 in 10.0 mi SE 5.8 mph - N/A   Overcast
7:55 AM 37.4 °F - 23.0 °F 56% 29.60 in 10.0 mi Calm Calm - N/A   Mostly Cloudy
8:15 AM 35.6 °F 31.7 °F 23.0 °F 60% 29.59 in 10.0 mi ESE 4.6 mph - N/A   Scattered Clouds
8:35 AM 35.6 °F 30.7 °F 23.0 °F 60% 29.59 in 10.0 mi South 5.8 mph - N/A   Clear
8:55 AM 35.6 °F - 23.0 °F 60% 29.59 in 10.0 mi Calm Calm - N/A   Clear
9:35 AM 41.0 °F - 23.0 °F 49% 29.59 in 10.0 mi Calm Calm - N/A   Clear
9:55 AM 42.8 °F 41.1 °F 23.0 °F 46% 29.59 in 10.0 mi WSW 3.5 mph - N/A   Clear
10:15 AM 46.4 °F 44.3 °F 21.2 °F 37% 29.60 in 10.0 mi WNW 4.6 mph - N/A   Clear
10:35 AM 48.2 °F - 21.2 °F 34% 29.60 in 10.0 mi West 5.8 mph - N/A   Clear
10:55 AM 50.0 °F - 21.2 °F 32% 29.60 in 10.0 mi Calm Calm - N/A   Clear
11:15 AM 51.8 °F - 21.2 °F 30% 29.60 in 10.0 mi West 4.6 mph - N/A   Clear
11:35 AM 53.6 °F - 21.2 °F 28% 29.61 in 10.0 mi NW 5.8 mph - N/A   Clear
11:55 AM 53.6 °F - 21.2 °F 28% 29.60 in 10.0 mi NW 8.1 mph - N/A   Clear
12:15 PM 53.6 °F - 21.2 °F 28% 29.60 in 10.0 mi NNW 9.2 mph 16.1 mph N/A   Clear
12:35 PM 51.8 °F - 21.2 °F 30% 29.59 in 10.0 mi North 10.4 mph - N/A   Clear
12:55 PM 51.8 °F - 21.2 °F 30% 29.59 in 10.0 mi North 9.2 mph - N/A   Clear
1:35 PM 51.8 °F - 23.0 °F 33% 29.60 in 10.0 mi North 10.4 mph - N/A   Clear
1:55 PM 51.8 °F - 23.0 °F 33% 29.59 in 10.0 mi North 10.4 mph - N/A   Clear
2:15 PM 51.8 °F - 23.0 °F 33% 29.60 in 10.0 mi North 9.2 mph - N/A   Clear
2:55 PM 51.8 °F - 23.0 °F 33% 29.59 in 10.0 mi North 8.1 mph 16.1 mph N/A   Clear
3:15 PM 51.8 °F - 21.2 °F 30% 29.59 in 10.0 mi NNE 9.2 mph - N/A   Clear
3:35 PM 50.0 °F - 21.2 °F 32% 29.59 in 10.0 mi NE 11.5 mph - N/A   Clear
3:55 PM 50.0 °F - 19.4 °F 30% 29.59 in 10.0 mi NE 11.5 mph - N/A   Clear
4:15 PM 48.2 °F - 19.4 °F 32% 29.59 in 10.0 mi NNE 10.4 mph - N/A   Scattered Clouds
4:35 PM 46.4 °F 40.7 °F 19.4 °F 34% 29.60 in 10.0 mi NE 12.7 mph 16.1 mph N/A   Mostly Cloudy
5:35 PM 42.8 °F 37.5 °F 19.4 °F 39% 29.61 in 10.0 mi NE 9.2 mph - N/A   Scattered Clouds
5:55 PM 41.0 °F 35.8 °F 19.4 °F 42% 29.62 in 10.0 mi NE 8.1 mph - N/A   Clear
6:15 PM 39.2 °F 33.6 °F 19.4 °F 45% 29.61 in 10.0 mi NE 8.1 mph - N/A   Clear
6:35 PM 37.4 °F 30.8 °F 19.4 °F 48% 29.62 in 10.0 mi NE 9.2 mph - N/A   Clear
6:55 PM 37.4 °F 31.4 °F 21.2 °F 52% 29.62 in 10.0 mi NE 8.1 mph - N/A   Clear
7:15 PM 35.6 °F 29.9 °F 21.2 °F 56% 29.64 in 10.0 mi NE 6.9 mph - N/A   Clear
7:35 PM 33.8 °F 27.7 °F 21.2 °F 60% 29.66 in 10.0 mi East 6.9 mph - N/A   Clear
7:55 PM 32.0 °F - 21.2 °F 64% 29.66 in 10.0 mi Calm Calm - N/A   Clear
8:15 PM 32.0 °F - 21.2 °F 64% 29.68 in 10.0 mi Calm Calm - N/A   Clear
8:55 PM 32.0 °F 28.7 °F 21.2 °F 64% 29.67 in 10.0 mi NE 3.5 mph - N/A   Clear
9:15 PM 32.0 °F 25.6 °F 23.0 °F 69% 29.66 in 10.0 mi NE 6.9 mph - N/A   Clear
9:35 PM 32.0 °F 26.4 °F 23.0 °F 69% 29.67 in 10.0 mi ENE 5.8 mph - N/A   Clear
9:55 PM 32.0 °F 24.2 °F 23.0 °F 69% 29.65 in 10.0 mi NE 9.2 mph - N/A   Clear
10:15 PM 32.0 °F 24.2 °F 23.0 °F 69% 29.64 in 10.0 mi NE 9.2 mph - N/A   Clear
10:35 PM 32.0 °F 24.8 °F 23.0 °F 69% 29.63 in 10.0 mi NE 8.1 mph - N/A   Clear
10:55 PM 32.0 °F 23.0 °F 23.0 °F 69% 29.63 in 10.0 mi ENE 11.5 mph - N/A   Clear
11:15 PM 32.0 °F 23.0 °F 23.0 °F 69% 29.61 in 10.0 mi ENE 11.5 mph - N/A   Clear
11:35 PM 32.0 °F 22.5 °F 24.8 °F 75% 29.60 in 10.0 mi ENE 12.7 mph - N/A   Clear
11:55 PM 32.0 °F 23.6 °F 26.6 °F 80% 29.59 in 10.0 mi ENE 10.4 mph 17.3 mph N/A   Clear